Change the Weather History Date:

Tuesday, November 12, 2013

  Actual Average Record
Temperature  
Mean Temperature 40 °F -  
Max Temperature 51 °F 53 °F 75 °F (1949)
Min Temperature 30 °F 33 °F 15 °F (1937)
Degree Days  
Heating Degree Days 24    
Moisture  
Dew Point 24 °F    
Average Humidity 54    
Maximum Humidity 75    
Minimum Humidity 41    
Precipitation  
Precipitation 0.00 in - - ()
Sea Level Pressure  
Sea Level Pressure 30.12 in    
Wind  
Wind Speed 5 mph (NNW)    
Max Wind Speed 17 mph    
Max Gust Speed 30 mph    
Visibility 10 miles    
Events Rain , Snow    
Averages and records for this station are not official NWS values.
T = Trace of Precipitation, MM = Missing Value Source: NWS Daily Summary

Daily Weather History Graph

Daily Weather History Graph

Search for Another Location

Airport or City:

Trip Planner

Search our weather history database for the weather conditions in past years. The results will help you decide how hot, cold, wet, or windy it might be!

Date:

Astronomy

Nov. 12, 2013 Rise Set
Actual Time 6:41 AM EST 4:41 PM EST
Civil Twilight 6:12 AM EST 5:11 PM EST
Nautical Twilight 5:39 AM EST 5:44 PM EST
Astronomical Twilight 5:06 AM EST 6:16 PM EST
Moon 1:56 PM EST (11/12) 1:26 AM EST (11/12)
Length of Visible Light 10h 58m
Length of Day
10h 00m
Waxing Gibbous, 76% of the Moon is Illuminated
Nov 12
Waxing Gibbous
Nov 17
Full
Nov 25
Last Quarter
Dec 2
New
Dec 9
First Quarter

Hourly Weather History & Observations

Time (EST) Temp. Windchill Dew Point Humidity Pressure Visibility Wind Dir Wind Speed Gust Speed Precip Events Conditions
12:15 AM 50.0 °F - 32.0 °F 50% 29.96 in 10.0 mi Calm Calm - N/A   Overcast
12:35 AM 50.0 °F - 32.0 °F 50% 29.96 in 10.0 mi Calm Calm - N/A   Overcast
12:55 AM 50.0 °F - 32.0 °F 50% 29.96 in 10.0 mi Calm Calm - N/A   Overcast
1:15 AM 50.0 °F - 32.0 °F 50% 29.94 in 10.0 mi Calm Calm - N/A Rain Light Rain
1:35 AM 50.0 °F - 33.8 °F 54% 29.95 in 10.0 mi Calm Calm - N/A   Overcast
1:55 AM 50.0 °F - 33.8 °F 54% 29.95 in 10.0 mi Calm Calm - N/A   Overcast
2:15 AM 50.0 °F - 33.8 °F 54% 29.95 in 10.0 mi Calm Calm - N/A   Overcast
2:35 AM 50.0 °F - 32.0 °F 50% 29.94 in 10.0 mi Calm Calm - N/A   Overcast
2:55 AM 50.0 °F - 32.0 °F 50% 29.94 in 10.0 mi Calm Calm - N/A   Overcast
3:15 AM 51.8 °F - 32.0 °F 47% 29.94 in 10.0 mi WNW 10.4 mph 20.7 mph N/A   Light Drizzle
3:35 AM 51.8 °F - 32.0 °F 47% 29.95 in 10.0 mi WNW 8.1 mph - N/A   Overcast
3:55 AM 50.0 °F - 32.0 °F 50% 29.96 in 10.0 mi NW 4.6 mph - N/A   Overcast
4:15 AM 48.2 °F - 32.0 °F 54% 29.98 in 10.0 mi North 17.3 mph 29.9 mph N/A   Overcast
4:35 AM 42.8 °F 35.1 °F 30.2 °F 61% 30.01 in 10.0 mi NNW 16.1 mph 25.3 mph N/A   Overcast
4:55 AM 41.0 °F 33.9 °F 30.2 °F 65% 30.02 in 10.0 mi NNW 12.7 mph 20.7 mph N/A   Overcast
5:15 AM 41.0 °F 34.3 °F 30.2 °F 65% 30.04 in 10.0 mi NNW 11.5 mph 24.2 mph N/A Rain Light Rain
5:35 AM 39.2 °F 33.6 °F 32.0 °F 75% 30.04 in 10.0 mi NNW 8.1 mph - N/A   Unknown
6:45 AM 35.6 °F 27.5 °F 26.6 °F 70% 30.09 in 5.0 mi North 11.5 mph 24.2 mph N/A Snow Light Snow
7:45 AM 33.8 °F 25.8 °F 23.0 °F 65% 30.13 in 7.0 mi North 10.4 mph 23.0 mph N/A   Overcast
8:45 AM 33.8 °F 26.4 °F 23.0 °F 65% 30.14 in 8.0 mi NNW 9.2 mph 15.0 mph N/A   Overcast
9:45 AM 35.6 °F 27.1 °F 23.0 °F 60% 30.15 in 10.0 mi NW 12.7 mph 18.4 mph N/A   Overcast
10:45 AM 35.6 °F 26.2 °F 21.2 °F 56% 30.16 in 10.0 mi North 15.0 mph 24.2 mph N/A   Overcast
11:45 AM 37.4 °F 29.8 °F 19.4 °F 48% 30.17 in 10.0 mi North 11.5 mph 21.9 mph N/A   Overcast
12:45 PM 35.6 °F 28.0 °F 17.6 °F 48% 30.17 in 10.0 mi North 10.4 mph 16.1 mph N/A   Mostly Cloudy
1:45 PM 35.6 °F 27.1 °F 17.6 °F 48% 30.18 in 10.0 mi North 12.7 mph 21.9 mph N/A   Mostly Cloudy
2:45 PM 35.6 °F 28.0 °F 14.0 °F 41% 30.20 in 15.0 mi North 10.4 mph 16.1 mph N/A   Mostly Cloudy
3:45 PM 35.6 °F 29.9 °F 15.8 °F 44% 30.22 in 15.0 mi North 6.9 mph 16.1 mph N/A   Mostly Cloudy
4:45 PM 35.6 °F 26.6 °F 15.8 °F 44% 30.24 in 10.0 mi NNW 13.8 mph 17.3 mph N/A   Mostly Cloudy
5:45 PM 33.8 °F 25.3 °F 15.8 °F 48% 30.25 in 10.0 mi North 11.5 mph 18.4 mph N/A   Mostly Cloudy
6:45 PM 32.0 °F 25.6 °F 15.8 °F 51% 30.28 in 7.0 mi NNW 6.9 mph 17.3 mph N/A   Scattered Clouds
7:45 PM 32.0 °F 27.5 °F 15.8 °F 51% 30.29 in 10.0 mi NW 4.6 mph - N/A   Scattered Clouds
8:45 PM 30.2 °F 23.4 °F 15.8 °F 55% 30.30 in 10.0 mi NNW 6.9 mph - N/A   Partly Cloudy
9:45 PM 30.2 °F 23.4 °F 17.6 °F 60% 30.30 in 10.0 mi North 6.9 mph - N/A   Partly Cloudy
9:55 PM 32.0 °F 28.7 °F 17.6 °F 55% 30.29 in 10.0 mi NNW 3.5 mph - N/A   Clear
10:15 PM 32.0 °F 27.5 °F 17.6 °F 55% 30.29 in 10.0 mi NW 4.6 mph - N/A   Clear
10:35 PM 32.0 °F 27.5 °F 17.6 °F 55% 30.30 in 10.0 mi NW 4.6 mph - N/A   Clear
10:55 PM 32.0 °F 25.6 °F 17.6 °F 55% 30.29 in 10.0 mi NW 6.9 mph - N/A   Clear
11:15 PM 32.0 °F 27.5 °F 17.6 °F 55% 30.30 in 10.0 mi WNW 4.6 mph - N/A   Clear
11:35 PM 32.0 °F 28.7 °F 17.6 °F 55% 30.30 in 10.0 mi WNW 3.5 mph - N/A   Clear
11:55 PM 32.0 °F 28.7 °F 17.6 °F 55% 30.31 in 10.0 mi NNW 3.5 mph - N/A   Clear